Regional Weather Roundup
Issued by NWS

Home | Current Version | Previous Version | Text Only | Print | Product List | Glossary Off
Versions: 1 2 3 4 5 6 7 8 9 10 11 12 13 14 15 16 17 18 19 20 21 22 23 24 25 26 27 28 29 30 31 32 33 34 35 36 37 38 39 40 41 42 43 44 45 46 47 48 49 50

000
ASUS43 KMPX 280301
RWRMN
WEATHER ROUNDUP FOR MINNESOTA
NATIONAL WEATHER SERVICE TWIN CITIES/CHANHASSEN MN
1000 PM CDT SAT MAY 27 2017


NOTE: "FAIR" INDICATES FEW OR NO CLOUDS BELOW 12,000 FEET WITH NO
SIGNIFICANT WEATHER AND/OR OBSTRUCTIONS TO VISIBILITY. N/A MEANS
CURRENT SKY AND/OR WEATHER CONDITIONS ARE NOT AVAILABLE.

MNZ060>063-068>070-280400-
   Twin Cities Metro

CITY           SKY/WX    TMP DP  RH WIND       PRES   REMARKS
TWIN CITIES    CLOUDY    67  48  50 S6        29.84S
ST PAUL        CLOUDY    61  53  75 SE7       29.84S
CRYSTAL        CLOUDY    65  46  50 S5        29.82S
BLAINE         PTCLDY    64  52  63 S5        29.83S
LAKEVILLE      MOCLDY    61  48  63 CALM      29.85S
EDEN PRAIRIE   CLOUDY    65  48  54 S6        29.83S
SOUTH ST PAUL  MOCLDY    64  48  56 S5        29.84S
LAKE ELMO      FAIR      59  52  77 S5        29.85S
$$
MNZ001>005-007-008-013>017-022>024-027-028-280400-
   Northwest Minnesota

CITY           SKY/WX    TMP DP  RH WIND       PRES   REMARKS
BEMIDJI        LGT RAIN  56  48  76 W12G28    29.77R
HALLOCK        CLOUDY    61  46  59 W17       29.70S
ROSEAU         CLOUDY    61  48  63 SW7       29.70S
WARROAD        CLOUDY    61  46  59 SW7       29.70S
CROOKSTON      CLOUDY    55  46  71 NW22G29   29.73R
FOSSTON          N/A     54  45  71 E3        29.72F
DETROIT LAKES  PTCLDY    55  45  67 SW5       29.75S
MOORHEAD       DRIZZLE   59  48  67 NW24G32   29.77R
PARK RAPIDS    LGT RAIN  61  45  55 W10G29    29.76R
MAHNOMEN       CLOUDY    60  45  55 S7        29.72R
$$
MNZ006-009>011-018-025>026-280400-
   North Central Minnesota

CITY           SKY/WX    TMP DP  RH WIND       PRES   REMARKS
BAUDETTE       CLOUDY    57  45  64 SW6       29.70S
FLAG ISLAND    CLOUDY    61  50  67 S5        29.67S
INTL FALLS     CLOUDY    62  39  42 VRB5      29.72R
WASKISH        CLOUDY    59  45  58 SW3       29.73R
BIG FORK       LGT RAIN  59  46  63 CALM      29.77R
LONGVILLE      PTCLDY    52  48  87 S3        29.76S
GRAND RAPIDS   CLEAR     57  46  66 S7        29.78S
CRANE LAKE     LGT RAIN  55  52  88 SE3       29.77R
ORR            CLOUDY    57  45  62 NW3       29.75R
COOK           CLOUDY    64  43  45 W9        29.78R
WALKER         LGT RAIN  60  46  60 S3        29.75F
$$
MNZ012-019>021-037-280400-
   Northeast Minnesota

CITY           SKY/WX    TMP DP  RH WIND       PRES   REMARKS
DULUTH         CLOUDY    64  44  48 SW9       29.79S
ELY            PTCLDY    63  39  42 S5        29.76S
HIBBING        PTCLDY    57  41  55 CALM      29.76S
EVELETH        PTCLDY    61  35  37 SW6       29.78S
DULUTH HARBOR  CLOUDY    64  48  55 SW7       29.78S
TWO HARBORS    CLOUDY    66  48  52 W5        29.76F
SILVER BAY     PTCLDY    57  48  72 CALM      29.76S
GRAND MARAIS     N/A     45  40  82 CALM      29.77S
G MARAIS ARPRT PTCLDY    55  37  50 CALM      29.81S
$$
MNZ029>031-032-039>041-046>048-054>057-064-280400-
   West Central Minnesota

CITY           SKY/WX    TMP DP  RH WIND       PRES   REMARKS
FERGUS FALLS   CLOUDY    63  46  55 SW12      29.74S
WHEATON        PTCLDY    64  43  45 SW12      29.79S
MORRIS         CLEAR     61  46  59 S10       29.80S
ALEXANDRIA     PTCLDY    61  44  53 S9        29.81F
ELBOW LAKE     FAIR      59  47  64 SW10      29.78F
WADENA         CLOUDY    64  43  45 S8        29.77F
GLENWOOD       PTCLDY    59  45  58 S10       29.82S
APPLETON       CLOUDY    66  45  45 SW9       29.82S
BENSON         PTCLDY    64  45  48 SW10      29.83S
ORTONVILLE     PTCLDY    63  46  55 S3        29.81S
MADISON        CLOUDY    64  48  55 SW9       29.84R
WILLMAR        FAIR      66  46  48 SW9       29.85S
$$
MNZ033>034-036-042>043-049>051-058-059-280400-
   Central Minnesota

CITY           SKY/WX    TMP DP  RH WIND       PRES   REMARKS
ST CLOUD       CLOUDY    59  48  67 S5        29.81F
SAUK CENTRE    FAIR      62  45  52 S9        29.82S
PAYNESVILLE    CLOUDY    64  45  50 SW9       29.83F
AITKIN         MOCLDY    61  45  55 S5        29.77F
PINE RIVER     PTCLDY    61  46  59 S3        29.81S
BRAINERD       PTCLDY    58  45  62 S7        29.79S
STAPLES        PTCLDY    59  43  55 S8        29.78S
LONG PRAIRIE   FAIR      61  43  51 S9        29.81S
LITTLE FALLS   PTCLDY    61  43  51 S5        29.80F
LITCHFIELD     CLOUDY    64  48  55 CALM      29.84F
BUFFALO        CLOUDY    64  47  54 CALM      29.84S
MAPLE LAKE     CLOUDY    66  49  55 CALM      29.84S
HUTCHINSON     CLOUDY    66  46  48 CALM      29.85F
$$
MNZ037-044-045-052-053-280400-
   East Central Minnesota

CITY           SKY/WX    TMP DP  RH WIND       PRES   REMARKS
PRINCETON      MOCLDY    63  48  59 S6        29.82S
MORA           PTCLDY    63  45  51 S3        29.83S
CAMBRIDGE      CLOUDY    66  50  55 S3        29.80F
RUSH CITY      CLOUDY    63  46  53 S3        29.82F
MOOSE LAKE     CLOUDY    59  43  55 CALM      29.79S
HINCKLEY       FAIR      59  52  77 CALM      29.81S
CLOQUET        PTCLDY    63  39  42 S5        29.79F
MCGREGOR       PTCLDY    59  46  63 S3        29.79F
$$
MNZ071>073-080-081-089-090-097-098-280400-
   Southwest Minnesota

CITY           SKY/WX    TMP DP  RH WIND       PRES   REMARKS
MONTEVIDEO     CLOUDY    64  45  48 SW8       29.84S
CANBY          PTCLDY    64  48  56 CALM      29.86S
MARSHALL       PTCLDY    62  48  60 SW9       29.86F
REDWOOD FALLS  CLOUDY    66  45  46 SW8       29.85S
OLIVIA         CLOUDY    63  46  55 SW6       29.84S
PIPESTONE      CLEAR     57  45  62 W6        29.90F
WINDOM         PTCLDY    63  50  63 SW8       29.90R
WORTHINGTON    CLOUDY    61  50  67 SW7       29.91S
JACKSON        CLOUDY    61  50  67 W6        29.91R
TRACY          PTCLDY    62  50  65 SW7       29.88F
SLAYTON        PTCLDY    59  50  71 SW7       29.91S
$$
MNZ065>067-074>077-082>085-091>093-280400-
   South Central Minnesota

CITY           SKY/WX    TMP DP  RH WIND       PRES   REMARKS
MANKATO        CLOUDY    66  45  46 S6        29.87S
NEW ULM        CLOUDY    64  46  52 SW8       29.86S
ST JAMES       CLOUDY    64  48  55 SW7       29.88S
FAIRMONT       CLOUDY    64  48  56 W6        29.89R
GLENCOE        MOCLDY    67  51  54 SW6       29.83F
FARIBAULT      CLOUDY    57  50  77 CALM      29.87S
OWATONNA       CLEAR     54  48  82 SE5       29.87S
WASECA         PTCLDY    55  45  67 CALM      29.89R
ALBERT LEA     CLEAR     59  52  77 CALM      29.88R
$$
MNZ078>079-086>088-094>096-280400-
   Southeast Minnesota

CITY           SKY/WX    TMP DP  RH WIND       PRES   REMARKS
ROCHESTER      CLOUDY    59  53  80 S5        29.89S
RED WING       CLEAR     54  46  76 CALM      29.85S
STANTON        PTCLDY    60  48  65 S3        29.85R
DODGE CENTER   CLEAR     61  46  59 CALM      29.88S
WINONA         MOCLDY    57  55  94 CALM      29.87S
AUSTIN         CLEAR     57  50  77 CALM      29.88S
PRESTON        MOCLDY    59  49  67 CALM      29.89S
$$
ABBREVIATIONS USED IN REMARKS
   TC - TEMPERATURES IN CELSIUS
  WCI - WIND CHILL INDEX
   HX - HEAT INDEX
  VSB - VISIBILITY
$$



USA.gov is the U.S. government's official web portal to all federal, state and local government web resources and services.